Weather History for KMNH - December, 2012

Change the Weather History Date:

Sunday, December 30, 2012

  Actual Average (KAPA) Record (KAPA)
Temperature  
Mean Temperature 22 °F -  
Max Temperature 37 °F 42 °F 59 °F (1996)
Min Temperature 8 °F 20 °F -13 °F (2014)
Degree Days  
Heating Degree Days 42    
Moisture  
Dew Point 1 °F    
Average Humidity 41    
Maximum Humidity 85    
Minimum Humidity 18    
Precipitation  
Precipitation 0.00 in - - ()
Sea Level Pressure  
Sea Level Pressure 29.88 in    
Wind  
Wind Speed 9 mph (South)    
Max Wind Speed 22 mph    
Max Gust Speed 31 mph    
Visibility 10 miles    
Events      
Averages and records for this station are not official NWS values.
T = Trace of Precipitation, MM = Missing Value Source: NWS Daily Summary

Daily Weather History Graph

Daily Weather History Graph

Search for Another Location

Airport or City:

Trip Planner

Search our weather history database for the weather conditions in past years. The results will help you decide how hot, cold, wet, or windy it might be!

Date:

Astronomy

Dec. 30, 2012 Rise Set
Actual Time 7:17 AM MST 4:45 PM MST
Civil Twilight 6:47 AM MST 5:15 PM MST
Nautical Twilight 6:14 AM MST 5:48 PM MST
Astronomical Twilight 5:41 AM MST 6:21 PM MST
Moon 7:17 PM MST (12/30) 8:29 AM MST (12/30)
Length of Visible Light 10h 27m
Length of Day
9h 27m
Waning Gibbous, 95% of the Moon is Illuminated
Dec 30
Waning Gibbous
Jan 4
Last Quarter
Jan 11
New
Jan 18
First Quarter
Jan 26
Full

Hourly Weather History & Observations

Time (MST) Temp. Windchill Dew Point Humidity Pressure Visibility Wind Dir Wind Speed Gust Speed Precip Events Conditions
12:14 AM 21.2 °F 11.7 °F -4.0 °F 33% 29.82 in 10.0 mi SSW 8.1 mph - N/A   Clear
12:34 AM 24.8 °F 14.0 °F -5.8 °F 26% 29.82 in 10.0 mi WSW 11.5 mph - N/A   Clear
12:54 AM 23.0 °F 10.1 °F -5.8 °F 28% 29.82 in 10.0 mi WSW 15.0 mph - N/A   Clear
1:14 AM 24.8 °F 11.9 °F -5.8 °F 26% 29.82 in 10.0 mi WSW 16.1 mph - N/A   Clear
1:34 AM 28.4 °F 23.3 °F -5.8 °F 23% 29.83 in 10.0 mi West 4.6 mph - N/A   Clear
1:54 AM 33.8 °F 21.9 °F -5.8 °F 18% 29.82 in 10.0 mi West 21.9 mph 31.1 mph N/A   Clear
2:14 AM 32.0 °F 22.1 °F -4.0 °F 21% 29.83 in 10.0 mi West 13.8 mph - N/A   Clear
2:34 AM 28.4 °F 23.3 °F -9.4 °F 19% 29.84 in 10.0 mi North 4.6 mph - N/A   Clear
2:54 AM 24.8 °F 20.5 °F -9.4 °F 22% 29.85 in 10.0 mi NE 3.5 mph - N/A   Clear
3:14 AM 26.6 °F 21.2 °F -9.4 °F 21% 29.85 in 10.0 mi ENE 4.6 mph - N/A   Clear
3:34 AM 26.6 °F 21.2 °F -9.4 °F 21% 29.85 in 10.0 mi ESE 4.6 mph - N/A   Clear
3:54 AM 17.6 °F 12.3 °F -7.6 °F 32% 29.86 in 10.0 mi SE 3.5 mph - N/A   Clear
4:14 AM 19.4 °F - -9.4 °F 28% 29.86 in 10.0 mi Calm Calm - N/A   Clear
4:34 AM 17.6 °F - -9.4 °F 30% 29.87 in 10.0 mi Calm Calm - N/A   Clear
4:53 AM 15.8 °F - -9.4 °F 32% 29.88 in 10.0 mi Calm Calm - N/A   Clear
5:14 AM 17.6 °F 12.3 °F -9.4 °F 30% 29.89 in 10.0 mi SSW 3.5 mph - N/A   Clear
5:33 AM 21.2 °F 10.1 °F -9.4 °F 26% 29.89 in 10.0 mi SW 10.4 mph 16.1 mph N/A   Clear
5:54 AM 23.0 °F 11.1 °F -5.8 °F 28% 29.88 in 10.0 mi WSW 12.7 mph 17.3 mph N/A   Clear
6:14 AM 30.2 °F 19.8 °F -2.2 °F 25% 29.88 in 10.0 mi WSW 13.8 mph - N/A   Clear
6:34 AM 26.6 °F 21.2 °F -7.6 °F 22% 29.89 in 10.0 mi NE 4.6 mph - N/A   Clear
6:54 AM 26.6 °F - -7.6 °F 22% 29.89 in 10.0 mi Calm Calm - N/A   Clear
7:14 AM 23.0 °F 18.4 °F -7.6 °F 26% 29.88 in 10.0 mi East 3.5 mph - N/A   Clear
7:34 AM 24.8 °F - -7.6 °F 24% 29.88 in 10.0 mi Calm Calm - N/A   Clear
7:54 AM 19.4 °F 11.5 °F -5.8 °F 33% 29.88 in 10.0 mi SSE 5.8 mph - N/A   Clear
8:14 AM 21.2 °F 12.6 °F -5.8 °F 30% 29.89 in 10.0 mi SSW 6.9 mph - N/A   Clear
8:34 AM 30.2 °F 26.7 °F -7.6 °F 19% 29.89 in 10.0 mi SW 3.5 mph - N/A   Clear
8:54 AM 30.2 °F 25.4 °F -4.0 °F 23% 29.89 in 10.0 mi WSW 4.6 mph - N/A   Clear
9:14 AM 30.2 °F 25.4 °F 1.4 °F 29% 29.89 in 10.0 mi SE 4.6 mph - N/A   Clear
9:34 AM 28.4 °F 21.2 °F 3.2 °F 34% 29.90 in 10.0 mi SSE 6.9 mph - N/A   Clear
9:54 AM 32.0 °F 24.2 °F 5.0 °F 32% 29.91 in 10.0 mi SSE 9.2 mph - N/A   Clear
10:14 AM 32.0 °F 23.6 °F 6.8 °F 35% 29.91 in 10.0 mi SSE 10.4 mph - N/A   Clear
10:33 AM 33.8 °F 25.3 °F 8.6 °F 35% 29.91 in 10.0 mi South 11.5 mph - N/A   Clear
10:54 AM 33.8 °F 26.4 °F 8.6 °F 35% 29.90 in 10.0 mi SSE 9.2 mph - N/A   Clear
11:14 AM 33.8 °F 23.5 °F 5.0 °F 30% 29.89 in 10.0 mi South 16.1 mph - N/A   Clear
11:34 AM 33.8 °F 24.3 °F 6.8 °F 32% 29.88 in 10.0 mi South 13.8 mph - N/A   Clear
11:54 AM 33.8 °F 24.3 °F 8.6 °F 35% 29.88 in 10.0 mi South 13.8 mph - N/A   Clear
12:14 PM 35.6 °F 27.5 °F 10.4 °F 35% 29.86 in 10.0 mi South 11.5 mph - N/A   Clear
12:34 PM 35.6 °F 27.1 °F 10.4 °F 35% 29.86 in 10.0 mi South 12.7 mph - N/A   Clear
12:54 PM 37.4 °F 29.8 °F 12.2 °F 36% 29.85 in 10.0 mi South 11.5 mph - N/A   Clear
1:13 PM 35.6 °F 25.5 °F 10.4 °F 35% 29.85 in 10.0 mi South 17.3 mph - N/A   Clear
1:34 PM 35.6 °F 27.5 °F 12.2 °F 38% 29.85 in 10.0 mi South 11.5 mph - N/A   Clear
1:54 PM 35.6 °F 27.1 °F 12.2 °F 38% 29.85 in 10.0 mi South 12.7 mph 16.1 mph N/A   Clear
2:14 PM 35.6 °F 27.5 °F 12.2 °F 38% 29.85 in 10.0 mi South 11.5 mph 18.4 mph N/A   Clear
2:34 PM 32.0 °F 21.6 °F 8.6 °F 38% 29.86 in 10.0 mi SSE 15.0 mph 23.0 mph N/A   Clear
2:54 PM 30.2 °F 18.9 °F 6.8 °F 37% 29.86 in 10.0 mi SSE 16.1 mph 26.5 mph N/A   Clear
3:14 PM 28.4 °F 18.5 °F 8.6 °F 43% 29.87 in 10.0 mi SSE 11.5 mph 17.3 mph N/A   Clear
3:34 PM 28.4 °F 18.0 °F 8.6 °F 43% 29.87 in 10.0 mi SSE 12.7 mph - N/A   Clear
3:53 PM 28.4 °F 17.5 °F 6.8 °F 40% 29.88 in 10.0 mi SSE 13.8 mph - N/A   Clear
4:14 PM 26.6 °F 13.8 °F 8.6 °F 47% 29.87 in 10.0 mi SSE 17.3 mph - N/A   Clear
4:33 PM 24.8 °F 10.0 °F 8.6 °F 50% 29.87 in 10.0 mi South 21.9 mph - N/A   Clear
4:54 PM 23.0 °F 8.7 °F 8.6 °F 54% 29.88 in 10.0 mi South 18.4 mph - N/A   Clear
5:14 PM 23.0 °F 14.7 °F 8.6 °F 54% 29.89 in 10.0 mi SSE 6.9 mph - N/A   Clear
5:34 PM 23.0 °F 13.1 °F 6.8 °F 50% 29.91 in 10.0 mi SSE 9.2 mph - N/A   Clear
5:54 PM 23.0 °F 13.9 °F 6.8 °F 50% 29.91 in 10.0 mi SSE 8.1 mph - N/A   Clear
6:14 PM 19.4 °F 10.4 °F 8.6 °F 63% 29.91 in 10.0 mi ESE 6.9 mph - N/A   Clear
6:34 PM 21.2 °F 13.6 °F 5.0 °F 50% 29.92 in 10.0 mi SE 5.8 mph - N/A   Clear
6:54 PM 17.6 °F 9.3 °F 5.0 °F 58% 29.92 in 10.0 mi SE 5.8 mph - N/A   Clear
7:14 PM 17.6 °F 12.3 °F 3.2 °F 53% 29.93 in 10.0 mi South 3.5 mph - N/A   Clear
7:34 PM 15.8 °F - 3.2 °F 58% 29.94 in 10.0 mi Calm Calm - N/A   Clear
7:54 PM 14.0 °F 5.1 °F 3.2 °F 62% 29.94 in 10.0 mi SW 5.8 mph - N/A   Clear
8:14 PM 12.2 °F 1.7 °F 3.2 °F 67% 29.94 in 10.0 mi West 6.9 mph - N/A   Clear
8:53 PM 10.4 °F -1.5 °F 3.2 °F 73% 29.93 in 10.0 mi WSW 8.1 mph - N/A   Clear
9:14 PM 12.2 °F -0.2 °F 5.0 °F 73% 29.94 in 10.0 mi WSW 9.2 mph - N/A   Clear
9:34 PM 10.4 °F -1.5 °F 5.0 °F 79% 29.93 in 10.0 mi West 8.1 mph - N/A   Clear
9:54 PM 10.4 °F -0.4 °F 3.2 °F 73% 29.93 in 10.0 mi West 6.9 mph - N/A   Clear
10:14 PM 8.6 °F -2.6 °F 3.2 °F 79% 29.93 in 10.0 mi West 6.9 mph - N/A   Clear
10:33 PM 10.4 °F 0.8 °F 5.0 °F 79% 29.94 in 10.0 mi West 5.8 mph - N/A   Clear
11:14 PM 8.6 °F 2.0 °F 5.0 °F 85% 29.92 in 10.0 mi West 3.5 mph - N/A   Clear
11:34 PM 8.6 °F 0.1 °F 3.2 °F 79% 29.91 in 10.0 mi West 4.6 mph - N/A   Scattered Clouds
11:53 PM 10.4 °F 4.0 °F 5.0 °F 79% 29.90 in 10.0 mi West 3.5 mph - N/A   Scattered Clouds